Regional Weather Roundup
Issued by NWS

Home | Current Version | Previous Version | Text Only | Print | Product List | Glossary On
Versions: 1 2 3 4 5 6 7 8 9 10 11 12 13 14 15 16 17 18 19 20 21 22 23 24 25 26 27 28 29 30 31 32 33 34 35 36 37 38 39 40 41 42 43 44 45 46 47 48 49 50
000
ASUS43 KLSX 200707
RWRMO

WEATHER SUMMARY FOR MISSOURI
NATIONAL WEATHER SERVICE SPRINGFIELD MO
200 AM CDT SUN AUG 20 2017

NOTE: "FAIR" INDICATES FEW OR NO CLOUDS BELOW 12,000 FEET WITH NO
       SIGNIFICANT WEATHER AND/OR OBSTRUCTIONS TO VISIBILITY.
       CURRENT SKY AND/OR WEATHER CONDITIONS ARE NOT AVAILABLE FOR
       CHILLICOTHE AND FARMINGTON.

MOZ001>031-035>038-043-044-053-054-200800-
...NORTHERN AND WESTERN MISSOURI...

CITY           SKY/WX    TMP DP  RH WIND       PRES   REMARKS
KANSAS CTY INT CLEAR     77  73  87 S10       29.90F
KANSAS C DTWN  CLEAR     83  75  77 S10       29.88F HX  90
LEE`S SUMMIT   CLOUDY    79  75  87 S13       29.92F
ST JOSEPH      CLOUDY    75  73  93 SE6       29.89S
CHILLICOTHE      N/A     72  69  90 SE3       29.93F
KIRKSVILLE     CLOUDY    63  58  83 CALM      29.95F

$$
MOZ066>068-077>081-088>096-101>105-200800-
...SOUTHWEST MISSOURI...

CITY           SKY/WX    TMP DP  RH WIND       PRES   REMARKS
SPRINGFIELD    CLEAR     77  75  93 S7        29.98F
JOPLIN         CLEAR     81  75  82 S9        29.96F

$$
MOZ032>034-039>042-045>050-055>058-069>072-200800-
...CENTRAL MISSOURI...

CITY           SKY/WX    TMP DP  RH WIND       PRES   REMARKS
COLUMBIA       CLEAR     73  70  90 SE6       29.96F
JEFFERSON CITY   N/A     71  71 100 SE5       29.95F VSB 1
ROLLA          CLEAR     71  68  90 S6        29.99F
SEDALIA        CLEAR     71  71 100 S5        29.95F
WHITEMAN AFB   CLEAR     73  73 100 S8        29.92F
WARRENSBURG    CLOUDY    72  70  94 S5        29.92F
OSAGE BEACH    CLEAR     72  71  97 S5        29.97F

$$
MOZ051-052-059>065-200800-
...EAST CENTRAL MISSOURI...

CITY           SKY/WX    TMP DP  RH WIND       PRES   REMARKS
ST LOUIS INTL  PTCLDY    76  68  76 E5        29.97F
SPIRIT OF STL  CLEAR     70  69  97 CALM      29.95F
ST CHARLES     CLEAR     72  70  93 CALM      29.95F

$$
MOZ072>076-082>087-097>100-106>115-200800-
...SOUTH CENTRAL AND SOUTHEAST MISSOURI...

CITY           SKY/WX    TMP DP  RH WIND       PRES   REMARKS
CAPE GIRARDEAU CLEAR     73  71  93 CALM      29.98F
FARMINGTON     CLEAR     70  68  93 CALM      30.01S
POPLAR BLUFF   FOG       72  72 100 CALM      29.98S VSB 1
WEST PLAINS    CLEAR     73  70  90 S3        30.03F

$$



USA.gov is the U.S. government's official web portal to all federal, state and local government web resources and services.